Content
SEND FEEDBACK

Daily
Averages
Monthly
Summary
United States of America

BROWNWOOD, TEXAS


Home > North America > United States > Texas
Elevation: 1391 feet     Latitude: 31 47N     Longitude: 098 57W

WEATHER
 
SELECT A DAY
Number of Records: 268,494;   Date Range: 12/12/02 - 7/29/14
 
SHARE

PRINT THIS DATA

[ ← Previous Day ]
WEATHER ALMANAC - JANUARY 23, 2013
[ Next Day → ]
[ °C ]   °F
Weather ElementAverageHighLow
Temperature57.9 °F77 °F (3:55 pm)39.2 °F (6:55 am)
Dewpoint46.9 °F51.8 °F (8:35 pm)39.2 °F (6:55 am)
Humidity70.1 %100 % (6:55 am)38 % (3:35 pm)
Barometer30.22 in30.30 in (10:35 am)30.14 in (5:55 pm)
Wind Speed6.8 mph13.8 mph (11:55 am)
Wind Gust18.4 mph (4:35 pm)
Weather ElementAverage
Visibility9.5 mi
Wind DirectionSSE (155.6 °)

Weather ElementTotal
Precipitation---
Heating Degree Days6.9 (Base 65)
Growing Degree Days8.1 (Base 50)
Averaged from 71 records on January 23, 2013
WEATHER CONDITIONS BREAKOUT
WIND DIRECTION BREAKOUT
WEATHER BY HOUR - JANUARY 23, 2013
[ °C ]   °F
Local TimeTemperatureDewpointHumidityBarometerVisibilityWind DirectionWind SpeedGust SpeedPrecipitationEventsConditions
12:35 AM48.2 °F42.8 °F82 %30.23 in10.0 miSSE (160°)3.5 mphPartly Cloudy
12:55 AM48.2 °F44.6 °F87 %30.23 in10.0 miCalmMostly Cloudy
1:15 AM48.2 °F44.6 °F87 %30.23 in10.0 miCalmOvercast
1:35 AM46.4 °F42.8 °F87 %30.23 in10.0 miESE (120°)3.5 mphScattered Clouds
1:55 AM48.2 °F44.6 °F87 %30.23 in10.0 miSE (140°)4.6 mphPartly Cloudy
2:15 AM44.6 °F41.0 °F87 %30.23 in10.0 miSSE (150°)3.5 mphPartly Cloudy
2:35 AM44.6 °F42.8 °F93 %30.23 in10.0 miSSE (150°)4.6 mphPartly Cloudy
2:55 AM46.4 °F42.8 °F87 %30.23 in10.0 miSouth (170°)6.9 mphClear
3:15 AM46.4 °F42.8 °F87 %30.23 in10.0 miSouth (170°)4.6 mphClear
3:35 AM46.4 °F42.8 °F87 %30.23 in10.0 miSSE (160°)4.6 mphClear
3:55 AM48.2 °F42.8 °F82 %30.23 in10.0 miSSE (160°)5.8 mphClear
4:15 AM46.4 °F42.8 °F87 %30.23 in10.0 miSSE (160°)6.9 mphClear
4:35 AM46.4 °F42.8 °F87 %30.24 in10.0 miSSE (160°)4.6 mphClear
4:55 AM46.4 °F42.8 °F87 %30.23 in10.0 miSSE (150°)5.8 mphClear
5:15 AM46.4 °F42.8 °F87 %30.23 in10.0 miSSE (160°)5.8 mphClear
5:35 AM46.4 °F42.8 °F87 %30.23 in10.0 miSSE (150°)5.8 mphClear
5:55 AM46.4 °F42.8 °F87 %30.24 in10.0 miCalmClear
6:15 AM44.6 °F42.8 °F93 %30.25 in10.0 miCalmClear
6:35 AM44.6 °F42.8 °F93 %30.26 in10.0 miCalmClear
6:55 AM39.2 °F39.2 °F100 %30.26 in1.8 miCalmClear
7:15 AM39.2 °F39.2 °F100 %30.26 in1.5 miCalmClear
7:35 AM41.0 °F41.0 °F100 %30.27 in2.5 miESE (120°)3.5 mphClear
7:55 AM39.2 °F39.2 °F100 %30.27 in4.0 miSE (140°)5.8 mphClear
8:15 AM41.0 °F41.0 °F100 %30.27 in8.0 miSSE (150°)4.6 mphClear
8:35 AM46.4 °F46.4 °F100 %30.27 in10.0 miSSE (160°)5.8 mphClear
8:55 AM50.0 °F46.4 °F87 %30.27 in10.0 miSouth (170°)6.9 mphClear
9:15 AM50.0 °F46.4 °F87 %30.28 in10.0 miSSE (160°)8.1 mphClear
9:35 AM53.6 °F46.4 °F77 %30.29 in10.0 miSSE (160°)8.1 mphClear
9:55 AM53.6 °F48.2 °F82 %30.29 in10.0 miSouth (170°)8.1 mphClear
10:15 AM55.4 °F48.2 °F77 %30.29 in10.0 miSSE (160°)8.1 mphClear
10:35 AM59.0 °F48.2 °F67 %30.30 in10.0 miSouth (170°)9.2 mphClear
10:55 AM59.0 °F48.2 °F67 %30.29 in10.0 miSSW (200°)9.2 mphClear
11:15 AM60.8 °F48.2 °F63 %30.28 in10.0 miSSW (200°)12.7 mphClear
11:35 AM62.6 °F48.2 °F59 %30.29 in10.0 miSW (220°)9.2 mphClear
11:55 AM64.4 °F48.2 °F56 %30.27 in10.0 miSouth (190°)13.8 mphClear
12:15 PM64.4 °F48.2 °F56 %30.26 in10.0 miSouth (180°)11.5 mphClear
12:35 PM66.2 °F50.0 °F56 %30.25 in10.0 miSouth (190°)10.4 mphClear
12:55 PM66.2 °F50.0 °F56 %30.23 in10.0 miSSW (200°)12.7 mphClear
1:15 PM68.0 °F50.0 °F52 %30.22 in10.0 miSouth (190°)11.5 mphClear
1:35 PM69.8 °F50.0 °F49 %30.21 in10.0 miSW (220°)8.1 mphClear
1:55 PM71.6 °F50.0 °F46 %30.20 in10.0 miSouth (190°)11.5 mphClear
2:15 PM71.6 °F50.0 °F46 %30.20 in10.0 miSSW (200°)8.1 mphClear
2:35 PM73.4 °F50.0 °F44 %30.19 in10.0 miSSW (200°)3.5 mphClear
2:55 PM73.4 °F50.0 °F44 %30.18 in10.0 miSSW (200°)5.8 mphClear
3:15 PM75.2 °F50.0 °F41 %30.18 in10.0 miWSW (250°)10.4 mphClear
3:35 PM75.2 °F48.2 °F38 %30.17 in10.0 miSSW (210°)11.5 mphClear
3:55 PM77.0 °F50.0 °F39 %30.17 in10.0 miSSW (200°)11.5 mph17.3 mphClear
4:15 PM75.2 °F50.0 °F41 %30.16 in10.0 miSSW (210°)11.5 mphClear
4:35 PM75.2 °F48.2 °F38 %30.16 in10.0 miSW (220°)12.7 mph18.4 mphClear
4:55 PM75.2 °F48.2 °F38 %30.16 in10.0 miSSW (210°)11.5 mphClear
5:15 PM75.2 °F50.0 °F41 %30.15 in10.0 miSouth (180°)9.2 mphClear
5:35 PM73.4 °F50.0 °F44 %30.15 in10.0 miSouth (170°)8.1 mphClear
5:55 PM71.6 °F50.0 °F46 %30.14 in10.0 miSSE (160°)6.9 mphClear
6:15 PM69.8 °F48.2 °F46 %30.14 in10.0 miSSE (150°)6.9 mphClear
6:35 PM68.0 °F48.2 °F49 %30.15 in10.0 miSSE (150°)6.9 mphClear
6:55 PM66.2 °F50.0 °F56 %30.16 in10.0 miSSE (150°)6.9 mphClear
7:15 PM64.4 °F50.0 °F59 %30.16 in10.0 miSSE (160°)6.9 mphClear
7:35 PM66.2 °F50.0 °F56 %30.17 in10.0 miSSE (160°)5.8 mphPartly Cloudy
7:55 PM64.4 °F50.0 °F59 %30.17 in10.0 miSouth (180°)6.9 mphPartly Cloudy
8:15 PM62.6 °F50.0 °F63 %30.17 in10.0 miSSE (160°)6.9 mphClear
8:35 PM62.6 °F51.8 °F68 %30.17 in10.0 miSSE (160°)6.9 mphClear
8:55 PM60.8 °F50.0 °F68 %30.17 in10.0 miSouth (170°)6.9 mphClear
9:15 PM60.8 °F50.0 °F68 %30.17 in10.0 miSouth (180°)8.1 mphClear
9:35 PM59.0 °F50.0 °F72 %30.17 in10.0 miSouth (180°)6.9 mphClear
9:55 PM57.2 °F50.0 °F77 %30.17 in10.0 miSouth (180°)6.9 mphClear
10:15 PM59.0 °F50.0 °F72 %30.18 in10.0 miSouth (190°)9.2 mphClear
10:35 PM59.0 °F50.0 °F72 %30.18 in10.0 miSouth (190°)8.1 mphClear
10:55 PM59.0 °F50.0 °F72 %30.19 in10.0 miSouth (190°)10.4 mphClear
11:15 PM59.0 °F50.0 °F72 %30.19 in10.0 miSouth (190°)9.2 mphClear
11:35 PM59.0 °F50.0 °F72 %30.19 in10.0 miSSW (200°)4.6 mphClear
11:55 PM57.2 °F50.0 °F77 %30.19 in10.0 miCalmClear
Hourly data recorded from KBWD, located miles away from Brownwood, Texas







STORIES FROM OUR PARTNERS